Location: Newark
(13.8625°N, 100.5144°E)
Time: 12:57:25
(UTC+00:00)

Envisat - Pass Details

Date: 04 April 2020
Orbit: 764 x 766 km, 98.1° (Epoch: 02 June)

Event Time Altitude Azimuth Distance (km) Brightness Sun altitude
Rises 12:18:59 0° 203° (SSW) 3,219 6.4 -12.6°
Reaches altitude 10° 12:22:12 10° 225° (SW) 2,294 6.0 -13.3°
Maximum altitude 12:25:09 16° 261° (W) 1,933 6.2 -14.0°
Drops below altitude 10° 12:28:07 10° 297° (WNW) 2,296 6.7 -14.7°
Sets 12:31:21 0° 319° (NW) 3,223 7.1 -15.5°
